KF5WCW-1 Weather Reports


time (UTC)temp
C
wind
direction
speed
KPH
gust
KPH
rain 1hr
cm
rain 24hr
cm
rain mn
cm
humidity
%
barometer
mb
20260508033604 11 334 0.0 19.3 0.00 0.00 0.00 47
20260508033104 11 336 12.9 19.3 0.00 0.00 0.00 48
20260508032604 11 316 0.0 0.0 0.00 0.00 0.00 50
20260508032104 11 316 0.0 0.0 0.00 0.00 0.00 48
20260508031604 11 316 0.0 0.0 0.00 0.00 0.00 48
20260508031104 11 316 0.0 0.0 0.00 0.00 0.00 48
20260508030604 11 316 0.0 6.4 0.00 0.00 0.00 47
20260508030104 11 282 4.8 9.7 0.00 0.00 0.00 46
20260508025604 11 278 6.4 11.3 0.00 0.00 0.00 47
20260508025104 12 272 8.0 16.1 0.00 0.00 0.00 47
20260508024604 12 260 12.9 19.3 0.00 0.00 0.00 46
20260508024104 12 260 8.0 16.1 0.00 0.00 0.00 45
20260508023604 12 272 8.0 14.5 0.00 0.00 0.00 44
20260508023104 12 293 8.0 16.1 0.00 0.00 0.00 43
20260508022604 12 282 12.9 24.1 0.00 0.00 0.00 41
20260508022104 12 258 9.7 27.4 0.00 0.00 0.00 42
20260508021604 12 275 14.5 17.7 0.00 0.00 0.00 40
20260508021104 13 291 9.7 20.9 0.00 0.00 0.00 41
20260508020604 13 278 9.7 19.3 0.00 0.00 0.00 40
20260508020104 12 291 17.7 17.7 0.00 0.00 0.00 39
20260508015604 13 295 9.7 19.3 0.00 0.00 0.00 39
20260508015104 13 305 11.3 19.3 0.00 0.00 0.00 40
20260508014604 13 271 12.9 22.5 0.00 0.00 0.00 39
20260508014104 13 323 4.8 9.7 0.00 0.00 0.00 38
20260508013604 13 319 0.0 4.8 0.00 0.00 0.00 40
20260508013104 13 338 1.6 6.4 0.00 0.00 0.00 38
20260508012604 13 324 4.8 11.3 0.00 0.00 0.00 38
20260508012104 13 306 4.8 11.3 0.00 0.00 0.00 38
20260508011604 13 295 11.3 16.1 0.00 0.00 0.00 38
20260508011104 13 289 11.3 19.3 0.00 0.00 0.00 37
20260508010604 13 281 9.7 24.1 0.00 0.00 0.00 36
20260508010104 13 285 17.7 25.7 0.00 0.00 0.00 37
20260508005604 13 279 17.7 24.1 0.00 0.00 0.00 37
20260508005104 13 261 14.5 20.9 0.00 0.00 0.00 38
20260508004604 13 275 16.1 27.4 0.00 0.00 0.00 36
20260508004104 13 282 14.5 25.7 0.00 0.00 0.00 36
20260508003604 13 265 12.9 22.5 0.00 0.00 0.00 37
20260508003104 13 277 14.5 25.7 0.00 0.00 0.00 37
20260508002604 13 282 19.3 25.7 0.00 0.00 0.00 38
20260508002104 14 264 16.1 30.6 0.00 0.00 0.00 36
20260508001604 15 241 16.1 29.0 0.00 0.00 0.00 37
20260508001104 15 246 16.1 25.7 0.00 0.00 0.00 34
20260508000604 15 305 9.7 22.5 0.00 0.00 0.00 30
20260508000104 15 272 12.9 29.0 0.00 0.00 0.00 31
20260507235604 15 305 11.3 25.7 0.00 0.00 0.00 29
20260507235104 15 317 6.4 20.9 0.00 0.00 0.00 29
20260507234604 15 302 6.4 20.9 0.00 0.00 0.00 30
20260507234104 15 285 12.9 25.7 0.00 0.00 0.00 29
20260507233604 15 341 4.8 16.1 0.00 0.00 0.00 29
20260507233104 15 288 6.4 24.1 0.00 0.00 0.00 30
20260507232604 15 289 14.5 17.7 0.00 0.00 0.00 33
20260507232104 15 275 12.9 17.7 0.00 0.00 0.00 31
20260507231604 15 296 9.7 24.1 0.00 0.00 0.00 31
20260507231104 15 310 12.9 27.4 0.00 0.00 0.00 32
20260507230604 15 331 6.4 19.3 0.00 0.00 0.00 32
20260507230104 15 329 14.5 27.4 0.00 0.00 0.00 31
20260507225604 15 331 17.7 27.4 0.00 0.00 0.00 30
20260507225104 16 320 9.7 27.4 0.00 0.00 0.00 29
20260507224604 16 285 12.9 20.9 0.00 0.00 0.00 29
20260507224104 16 338 8.0 24.1 0.00 0.00 0.00 27
20260507223604 16 336 12.9 27.4 0.00 0.00 0.00 30
20260507223104 15 326 11.3 35.4 0.00 0.00 0.00 29
20260507222604 15 292 27.4 37.0 0.00 0.00 0.00 29
20260507222104 15 324 9.7 41.8 0.00 0.00 0.00 29
20260507221604 15 305 17.7 40.2 0.00 0.00 0.00 30
20260507221104 15 277 14.5 25.7 0.00 0.00 0.00 31
20260507220604 15 291 20.9 29.0 0.00 0.00 0.00 31
20260507220104 16 300 8.0 22.5 0.00 0.00 0.00 30
20260507215604 16 299 14.5 25.7 0.00 0.00 0.00 29
20260507215104 16 295 16.1 22.5 0.00 0.00 0.00 30
20260507214604 16 307 14.5 17.7 0.00 0.00 0.00 30
20260507214104 16 292 14.5 22.5 0.00 0.00 0.00 30
20260507213604 16 258 11.3 20.9 0.00 0.00 0.00 33
20260507213104 15 223 1.6 14.5 0.00 0.00 0.00 36
20260507212604 15 203 8.0 19.3 0.00 0.00 0.00 35
20260507212104 15 262 14.5 16.1 0.00 0.00 0.00 38
20260507211604 15 185 0.0 12.9 0.00 0.00 0.00 36
20260507211104 14 261 9.7 19.3 0.00 0.00 0.00 38
20260507210604 14 225 9.7 14.5 0.00 0.00 0.00 38
20260507210104 14 185 11.3 16.1 0.00 0.00 0.00 38
20260507205604 14 222 12.9 14.5 0.00 0.00 0.00 38
20260507205104 13 212 11.3 17.7 0.00 0.00 0.00 38
20260507204604 13 206 14.5 17.7 0.00 0.00 0.00 37
20260507204104 14 230 6.4 16.1 0.00 0.00 0.00 37
20260507203604 15 222 12.9 12.9 0.00 0.00 0.00 37
20260507203104 15 258 0.0 4.8 0.00 0.00 0.00 37
20260507202604 14 275 4.8 9.7 0.00 0.00 0.00 37
20260507202104 14 232 0.0 8.0 0.00 0.00 0.00 38
20260507201604 13 247 6.4 8.0 0.00 0.00 0.00 39
20260507201104 13 206 3.2 11.3 0.00 0.00 0.00 37
20260507200604 14 267 1.6 11.3 0.00 0.00 0.00 39
20260507200104 14 182 0.0 9.7 0.00 0.00 0.00 37
20260507195604 14 35 1.6 8.0 0.00 0.00 0.00 38
20260507195104 13 329 1.6 14.5 0.00 0.00 0.00 43
20260507194604 13 275 0.0 0.0 0.00 0.00 0.00 40
20260507194104 13 275 0.0 12.9 0.00 0.00 0.00 40
20260507193604 13 177 3.2 12.9 0.00 0.00 0.00 39
20260507193104 13 140 9.7 17.7 0.00 0.00 0.00 39
20260507192604 13 172 4.8 12.9 0.00 0.00 0.00 40
20260507192104 13 199 4.8 20.9 0.00 0.00 0.00 41
20260507191604 13 185 20.9 20.9 0.00 0.00 0.00 39
20260507191104 13 184 0.0 8.0 0.00 0.00 0.00 40
20260507190604 13 216 6.4 12.9 0.00 0.00 0.00 43
20260507190105 12 265 6.4 12.9 0.00 0.00 0.00 42
20260507185604 12 181 9.7 14.5 0.00 0.00 0.00 41
20260507185105 12 180 3.2 14.5 0.00 0.00 0.00 41
20260507184604 12 187 9.7 14.5 0.00 0.00 0.00 41
20260507184105 12 140 0.0 11.3 0.00 0.00 0.00 43
20260507183605 11 87 8.0 16.1 0.00 0.00 0.00 42
20260507183105 12 188 11.3 14.5 0.00 0.00 0.00 45
20260507182605 11 132 4.8 19.3 0.00 0.00 0.00 43
20260507182105 11 216 11.3 12.9 0.00 0.00 0.00 44
20260507181605 11 140 9.7 14.5 0.00 0.00 0.00 43
20260507181105 11 126 12.9 16.1 0.00 0.00 0.00 43
20260507180605 11 174 9.7 16.1 0.00 0.00 0.00 46
20260507180105 11 229 4.8 17.7 0.00 0.00 0.00 45
20260507175605 11 165 11.3 19.3 0.00 0.00 0.00 44
20260507175105 10 181 16.1 20.9 0.00 0.00 0.00 44
20260507174605 11 123 6.4 16.1 0.00 0.00 0.00 44
20260507174105 10 182 8.0 19.3 0.00 0.00 0.00 44
20260507173605 10 130 4.8 14.5 0.00 0.00 0.00 46
20260507173105 10 135 8.0 17.7 0.00 0.00 0.00 44
20260507172605 10 161 17.7 17.7 0.00 0.00 0.00 45
20260507172105 9 202 9.7 16.1 0.00 0.00 0.00 46
20260507171605 8 226 6.4 14.5 0.00 0.00 0.00 46
20260507171105 8 206 11.3 14.5 0.00 0.00 0.00 49
20260507170605 8 194 11.3 14.5 0.00 0.00 0.00 48
20260507170105 8 241 4.8 14.5 0.00 0.00 0.00 50
20260507165605 8 216 9.7 11.3 0.00 0.00 0.00 48
20260507165105 8 127 9.7 11.3 0.00 0.00 0.00 48
20260507164605 7 151 1.6 11.3 0.00 0.00 0.00 49
20260507164105 7 160 6.4 11.3 0.00 0.00 0.00 49
20260507163605 7 167 0.0 9.7 0.00 0.00 0.00 51
20260507163105 7 172 0.0 9.7 0.00 0.00 0.00 52
20260507162605 6 217 6.4 9.7 0.00 0.05 0.00 53
20260507162105 7 178 3.2 11.3 0.00 0.05 0.00 54
20260507161605 6 213 0.0 6.4 0.00 0.05 0.00 54
20260507161105 6 195 0.0 1.6 0.00 0.05 0.00 55
20260507160605 6 253 0.0 8.0 0.00 0.05 0.00 54
20260507160105 6 226 6.4 6.4 0.00 0.05 0.00 53
20260507155605 5 171 0.0 9.7 0.00 0.05 0.00 54
20260507155105 5 39 0.0 8.0 0.00 0.05 0.00 53
20260507154605 5 158 4.8 8.0 0.00 0.05 0.00 55
20260507154105 5 108 0.0 8.0 0.00 0.05 0.00 55
20260507153605 5 146 0.0 8.0 0.00 0.05 0.00 56
20260507153105 4 150 0.0 4.8 0.00 0.05 0.00 56
20260507152605 4 192 0.0 6.4 0.00 0.30 0.00 58
20260507152105 4 194 0.0 0.0 0.00 0.30 0.00 59
20260507151605 4 194 0.0 0.0 0.00 0.30 0.00 58
20260507151105 3 194 0.0 3.2 0.00 0.30 0.00 58
20260507150605 3 234 0.0 0.0 0.00 0.30 0.00 58
20260507150105 3 234 0.0 1.6 0.00 0.30 0.00 59
20260507145605 3 171 0.0 0.0 0.00 0.30 0.00 64
20260507145105 2 171 0.0 0.0 0.00 0.30 0.00 64
20260507144605 2 171 0.0 0.0 0.00 0.30 0.00 65
20260507144105 2 171 0.0 0.0 0.00 0.30 0.00 66
20260507143605 2 171 0.0 0.0 0.00 0.30 0.00 67
20260507143105 2 171 0.0 0.0 0.00 0.30 0.00 68
20260507142605 2 171 0.0 0.0 0.00 0.38 0.00 69
20260507142105 1 171 0.0 0.0 0.00 0.38 0.00 70
20260507141605 1 171 0.0 0.0 0.00 0.38 0.00 70
20260507141105 1 171 0.0 0.0 0.00 0.38 0.00 71
20260507140605 0 149 0.0 0.0 0.00 0.38 0.00 74
20260507140105 0 149 0.0 4.8 0.00 0.38 0.00 75
20260507135605 0 319 0.0 0.0 0.00 0.38 0.00 76
20260507135105 0 319 0.0 0.0 0.00 0.38 0.00 77
20260507134605 0 319 0.0 0.0 0.00 0.38 0.00 79
20260507134105 0 319 0.0 0.0 0.00 0.38 0.00 80
20260507133605 -1 319 0.0 0.0 0.00 0.38 0.00 81
20260507133105 -1 319 0.0 0.0 0.00 0.38 0.00 83
20260507132605 -1 319 0.0 0.0 0.00 0.38 0.00 84
20260507132105 -2 319 0.0 0.0 0.00 0.38 0.00 86
20260507131605 -2 319 0.0 0.0 0.00 0.38 0.00 87
20260507131105 -2 319 0.0 0.0 0.00 0.38 0.00 85
20260507130605 -2 319 0.0 0.0 0.00 0.38 0.00 85
20260507130105 -2 319 0.0 0.0 0.00 0.38 0.00 84
20260507125605 -2 319 0.0 0.0 0.00 0.38 0.00 84
20260507125105 -2 319 0.0 0.0 0.00 0.38 0.00 84
20260507124605 -2 319 0.0 4.8 0.00 0.38 0.00 85
20260507124105 -3 289 4.8 4.8 0.00 0.38 0.00 86
20260507123605 -3 299 0.0 8.0 0.00 0.38 0.00 87
20260507123105 -3 292 6.4 6.4 0.00 0.38 0.00 88
20260507122605 -3 296 0.0 3.2 0.00 0.43 0.00 89
20260507122105 -3 310 0.0 3.2 0.00 0.43 0.00 90
20260507121605 -3 296 1.6 4.8 0.00 0.43 0.00 91
20260507121105 -3 101 0.0 0.0 0.00 0.43 0.00 90
20260507120605 -3 101 0.0 0.0 0.00 0.43 0.00 89
20260507120105 -3 101 0.0 0.0 0.00 0.43 0.00 88
20260507115605 -3 101 0.0 0.0 0.00 0.43 0.00 87
20260507115105 -3 101 0.0 0.0 0.00 0.43 0.00 88
20260507114605 -3 101 0.0 0.0 0.00 0.43 0.00 88
20260507114105 -3 101 0.0 0.0 0.00 0.43 0.00 88
20260507113605 -3 101 0.0 0.0 0.00 0.43 0.00 87
20260507113105 -3 101 0.0 0.0 0.00 0.43 0.00 87
20260507112605 -3 101 0.0 0.0 0.00 0.43 0.00 87
20260507112105 -3 101 0.0 0.0 0.00 0.43 0.00 87
20260507111605 -2 101 0.0 0.0 0.00 0.43 0.00 86
20260507111105 -2 101 0.0 0.0 0.00 0.43 0.00 86
20260507110605 -2 101 0.0 0.0 0.00 0.43 0.00 86
20260507110105 -2 101 0.0 0.0 0.00 0.43 0.00 86
20260507105605 -2 101 0.0 3.2 0.00 0.43 0.00 85
20260507105105 -2 129 1.6 6.4 0.00 0.43 0.00 86
20260507104606 -2 85 3.2 3.2 0.00 0.43 0.00 85
20260507104105 -2 119 0.0 1.6 0.00 0.43 0.00 83
20260507103605 -2 40 0.0 0.0 0.00 0.43 0.00 82
20260507103105 -2 40 0.0 0.0 0.00 0.43 0.00 81
20260507102605 -2 40 0.0 3.2 0.00 0.61 0.00 80
20260507102105 -2 53 0.0 4.8 0.00 0.61 0.00 80
20260507101605 -1 220 0.0 4.8 0.00 0.61 0.00 78
20260507101105 -2 177 1.6 11.3 0.00 0.61 0.00 78
20260507100605 -1 191 6.4 6.4 0.00 0.61 0.00 73
20260507100105 0 237 0.0 0.0 0.00 0.61 0.00 71
20260507095605 0 237 0.0 4.8 0.00 0.61 0.00 70
20260507095105 0 251 1.6 8.0 0.00 0.61 0.00 72
20260507094605 0 278 4.8 8.0 0.00 0.61 0.00 72
20260507094105 -1 316 0.0 8.0 0.00 0.61 0.00 74
20260507093605 -1 300 0.0 3.2 0.00 0.61 0.00 79
20260507093105 -1 300 1.6 6.4 0.00 0.61 0.00 81
20260507092605 -1 212 0.0 0.0 0.00 0.69 0.00 80
20260507092105 -1 212 0.0 8.0 0.00 0.69 0.00 77
20260507091605 -1 302 3.2 11.3 0.00 0.69 0.00 76
20260507091105 0 298 0.0 6.4 0.00 0.69 0.00 77
20260507090605 0 309 0.0 0.0 0.00 0.69 0.00 74
20260507090106 0 309 0.0 0.0 0.00 0.69 0.00 70
20260507085605 0 309 0.0 8.0 0.00 0.69 0.00 69
20260507085105 0 303 6.4 11.3 0.00 0.69 0.00 70
20260507084605 0 302 6.4 14.5 0.00 0.69 0.00 69
20260507084105 0 302 11.3 12.9 0.00 0.69 0.00 70
20260507083605 0 303 8.0 16.1 0.00 0.69 0.00 69
20260507083105 1 296 11.3 14.5 0.00 0.69 0.00 66
20260507082606 1 312 4.8 20.9 0.00 0.71 0.00 65
20260507082105 1 309 3.2 20.9 0.00 0.71 0.00 64
20260507081605 1 326 11.3 27.4 0.00 0.71 0.00 63
20260507081106 1 322 16.1 19.3 0.00 0.71 0.00 64
20260507080606 1 329 8.0 17.7 0.00 0.71 0.00 66
20260507080106 0 279 16.1 16.1 0.00 0.71 0.00 68
20260507075605 1 282 3.2 12.9 0.00 0.71 0.00 69
20260507075106 1 305 3.2 19.3 0.00 0.71 0.00 66
20260507074606 1 334 11.3 14.5 0.00 0.71 0.00 66
20260507074106 1 19 0.0 3.2 0.00 0.71 0.00 65
20260507073606 1 298 0.0 0.0 0.00 0.71 0.00 67
20260507073106 1 298 0.0 0.0 0.00 0.71 0.00 69
20260507072606 1 298 0.0 8.0 0.00 0.71 0.00 67
20260507072106 1 336 4.8 9.7 0.00 0.71 0.00 68
20260507071606 1 299 0.0 8.0 0.00 0.71 0.00 69
20260507071106 1 323 6.4 11.3 0.00 0.71 0.00 68
20260507070606 1 338 8.0 9.7 0.00 0.71 0.00 66
20260507070106 1 343 8.0 17.7 0.00 0.71 0.00 67
20260507065606 1 358 0.0 4.8 0.00 0.71 0.00 69
20260507065106 1 344 4.8 6.4 0.00 0.71 0.00 70
20260507064606 1 19 0.0 3.2 0.00 0.71 0.00 71
20260507064106 1 4 1.6 4.8 0.00 0.71 0.00 70
20260507063606 1 331 0.0 0.0 0.00 0.71 0.00 69
20260507063106 1 331 0.0 6.4 0.00 0.71 0.00 69
20260507062606 1 341 4.8 12.9 0.00 0.71 0.00 66
20260507062106 1 282 0.0 11.3 0.00 0.71 0.00 66
20260507061606 1 326 4.8 16.1 0.00 0.71 0.00 66
20260507061106 1 293 8.0 12.9 0.00 0.71 0.00 67
20260507060606 1 315 3.2 12.9 0.00 0.71 0.00 66
20260507060106 1 288 8.0 14.5 0.00 0.71 0.00 68
20260507055606 1 285 12.9 16.1 0.00 0.71 0.00 67
20260507055106 1 310 8.0 14.5 0.00 0.71 0.71 69
20260507054606 1 272 0.0 11.3 0.00 0.71 0.71 70
20260507054106 1 329 4.8 11.3 0.00 0.71 0.71 69
20260507053606 1 305 8.0 14.5 0.00 0.71 0.71 70
20260507053106 1 278 3.2 9.7 0.00 0.71 0.71 73
20260507052606 1 298 6.4 11.3 0.00 0.71 0.71 77
20260507052106 1 286 8.0 14.5 0.00 0.71 0.71 77
20260507051606 0 320 4.8 6.4 0.00 0.71 0.71 84
20260507051106 0 336 3.2 4.8 0.00 0.71 0.71 89
20260507050606 0 319 3.2 8.0 0.00 0.71 0.71 88
20260507050106 0 354 0.0 4.8 0.00 0.71 0.71 95
20260507045606 0 248 0.0 0.0 0.00 0.71 0.71 95
20260507045106 0 248 0.0 0.0 0.00 0.71 0.71 94
20260507044606 0 248 0.0 3.2 0.00 0.71 0.71 93
20260507044106 0 271 3.2 3.2 0.00 0.71 0.71 94
20260507043606 0 177 1.6 3.2 0.00 0.71 0.71 94
20260507043106 0 53 1.6 3.2 0.00 0.71 0.71 95
20260507042606 0 316 0.0 6.4 0.00 0.71 0.71 95
20260507042106 0 347 0.0 0.0 0.00 0.71 0.71 95
20260507041606 0 347 0.0 1.6 0.00 0.71 0.71 94
20260507041106 0 324 0.0 1.6 0.00 0.71 0.71 95
20260507040606 0 192 0.0 0.0 0.00 0.71 0.71 92
20260507040106 0 192 0.0 0.0 0.00 0.71 0.71 92
20260507035606 0 192 0.0 0.0 0.00 0.71 0.71 91
20260507035106 0 192 0.0 0.0 0.00 0.71 0.71 92
20260507034606 0 192 0.0 0.0 0.00 0.71 0.71 91
20260507034106 0 192 0.0 0.0 0.00 0.71 0.71 92